map of TEE home
Great Circle Mapper logo
TEE - Airport
Location
City:  Tbessa, Algeria
Name:Cheikh Larbi Tébessi
ICAO / IATA:DABS / TEE

Details
Type:Airport (Aerodrome, Airfield)
Latitude:35°25'57"N (35.432500)
Longitude:8°07'32"E (8.125556)
Elevation:2661 ft (811 m)
Variation:1.70°E (WMM2015 magnetic declination)
0.10° annual change
Runways:2
Longest:9843 × 148 ft (3000 × 45 m)

Time
Time Zone:UTC+1
Local Time:

Weather
METAR:DABS 041000Z 00000KT CAVOK 19/04 Q1025
TAF:DABS 041100Z 0412/0512 18005KT 9999 FEW033
BECMG 0418/0420 SCT030TCU BKN040 PROB40
TEMPO 0500/0512 32015G25KT 7000 -RA FEW026CB BKN030

Related Locations
Nearby:
Farthest:GIS: 11838 mi / 19052 km
Gisborne, NZ

Find:

   beyond  
but within

Other Information
Maps:
NOTAMs:
Links:
Sources:

  
flag of Algeria   

Sectional Chart

Flight Planning
at skyvector.com

Satellite Image

Google Maps Satellite View

 

Copyright © 2004-2015 Karl L. Swartz. All rights reserved.
The Great Circle Mapper name and logo are trademarks of the Great Circle Mapper.
All other trademarks mentioned herein belong to their respective owners.
Please see credits for attibutions and further copyright information.

  Follow gcmap on Facebook Follow gcmap on Twitter Follow gcmap on Google+

hCard Microformat

Geo Microformat